Find STARLINK-37814

NORAD ID: 799500927 Int'l Des: 2026-130E Constellation: starlink operational

Aktuelle Ansicht

3D-Globus wird geladen...

About STARLINK-37814

STARLINK-37814 (NORAD 799500927) is a starlink constellation satellite launched Jun 4, 2026

Über STARLINK-37814

Beschreibung wird geladen...

Nächste Überflüge

Passes for default location (London). Set your location on the main map for personalized predictions.

Höhenverlauf

Loading altitude history...

Zweizeiliger Elementsatz

1 99999C 2026130E 26163.06923610 .00034293 00000-0 531310-5 0 1636
2 99999 97.2797 182.7827 0010883 273.4853 232.7535 16.04040818 15
Epoch: 12. Juni 2026 • Age: 6 hours

Aktueller Status

Höhe 268.5 km
Geschwindigkeit 7.75 km/s
Subsatellitenpunkt 18.90°N, 10.78°W
Startdatum 4. Juni 2026
Alter 7 days
Typ internet

Most Searched